Regional Weather Roundup
Issued by NWS

Home | Current Version | Previous Version | Graphics & Text | Print | Product List | Glossary Off
Versions: 1 2 3 4 5 6 7 8 9 10 11 12 13 14 15 16 17 18 19 20 21 22 23 24 25 26 27 28 29 30 31 32 33 34 35 36 37 38 39 40 41 42 43 44 45 46 47 48 49 50

000
ASUS45 KABQ 310710
RWRNM
NEW MEXICO REGIONAL WEATHER ROUNDUP
NATIONAL WEATHER SERVICE ALBUQUERQUE NM
100 AM MDT TUE MAY 31 2016

NOTE: "FAIR" MEANS FEW OR NO CLOUDS BELOW 12,000 FEET AGL WITH NO
       SIGNIFICANT WEATHER OR OBSTRUCTIONS TO VISION.

      THIS PRODUCT IS RELEASED AS TWO VERSIONS.  ONE VERSION NEAR
      THE TOP OF THE HOUR CONTAINING PRELIMINARY DATA FROM ALBUQUERQUE
      AND OTHER STATIONS.  A FINAL VERSION WITH ADDITIONAL DATA IS
      ISSUED ABOUT 10 MINUTES AFTER THE HOUR.

NMZ501-503-504-510>518-310800-
NORTHWEST PLATEAU/NORTHCENTRAL MOUNTAINS

CITY           SKY/WX    TMP DP  RH WIND       PRES   REMARKS
FARMINGTON     FAIR      55  20  25 NE7       30.00S
LOS ALAMOS     MOCLDY    60  28  28 N7        30.13S
SANTA FE       FAIR      62  28  27 VRB3      30.06R
TAOS           FAIR      52  25  35 NE9       30.11S
ANGEL FIRE     FAIR      34  26  70 CALM      30.19S

$$
NMZ402-403-502-505>509-310800-
WESTCENTRAL MOUNTAINS/SOUTHWEST MOUNTAINS

CITY           SKY/WX    TMP DP  RH WIND       PRES   REMARKS
GALLUP         FAIR      45  23  42 NE5       30.08S
GRANTS         FAIR      54  24  32 SW5       30.10S
SILVER CITY      N/A     57  43  58 CALM      30.06S

$$
NMZ407-409-411-412-310800-
SOUTHERN DESERTS

CITY           SKY/WX    TMP DP  RH WIND       PRES   REMARKS
LORDSBURG      FAIR      61  48  63 S8        29.97S
DEMING         FAIR      61  53  75 E9        29.99F
LAS CRUCES     LGT RAIN  64  53  67 S9        30.00S
HOLLOMAN AFB   MOCLDY    68  47  47 S14       29.93F
ALAMOGORDO     FAIR      68  45  42 S10       29.97F
T OR C         FAIR      68  44  42 SW10      29.98R

$$
NMZ519>523-310800-
CENTRAL VALLEYS/CENTRAL HIGHLANDS

CITY           SKY/WX    TMP DP  RH WIND       PRES   REMARKS
ALBUQUERQUE    MOCLDY    69  33  26 S9G18     29.99S
DOUBLE EAGLE   FAIR      61  32  33 SW3       30.02F
MORIARTY ARPT  FAIR      56  35  44 SE6       30.06F
CLINES CORNERS FAIR      57  36  45 SW14      30.08S
BELEN          FAIR      67  34  30 SE13      29.98F
SOCORRO        FAIR      66  36  33 S7        29.98S

$$
NMZ524>526-539-540-310800-
SOUTHCENTRAL MOUNTAINS

CITY           SKY/WX    TMP DP  RH WIND       PRES   REMARKS
RUIDOSO          N/A     50  45  81 NW3       30.12F

$$
NMZ527>531-310800-
NORTHEAST HIGHLANDS/NORTHEAST PLAINS

CITY           SKY/WX    TMP DP  RH WIND       PRES   REMARKS
LAS VEGAS      FAIR      50  33  52 S13       30.06S
RATON          FAIR      51  35  54 N7        30.04S
CLAYTON        FAIR      53  47  79 N9        30.00R

$$
NMZ532>537-310800-
EASTCENTRAL PLAINS

CITY           SKY/WX    TMP DP  RH WIND       PRES   REMARKS
TUCUMCARI      FAIR      65  43  44 S6        29.94R
CANNON AFB     CLOUDY    62  58  87 S14       30.03R
CLOVIS AIRPORT FAIR      61  54  77 S17       30.03F

$$
NMZ028-029-538-310800-
SOUTHEAST PLAINS

CITY           SKY/WX    TMP DP  RH WIND       PRES   REMARKS
ROSWELL        FAIR      62  50  64 E6        29.94S
ARTESIA        FAIR      63  59  88 S7        29.94F
CARLSBAD       FAIR      62  58  86 W7        29.95F
HOBBS          FAIR      59  59 100 E7        30.02F


$$



USA.gov is the U.S. government's official web portal to all federal, state and local government web resources and services.